Regional Weather Roundup
Issued by NWS

Home | Current Version | Previous Version | Graphics & Text | Print | Product List | Glossary On
Versions: 1 2 3 4 5 6 7 8 9 10 11 12 13 14 15 16 17 18 19 20 21 22 23 24 25 26 27 28 29 30 31 32 33 34 35 36 37 38 39 40 41 42 43 44 45 46 47 48 49 50
000
ASUS43 KMKX 241838
RWRWI

WISCONSIN REGIONAL WEATHER ROUNDUP
NATIONAL WEATHER SERVICE MILWAUKEE/SULLIVAN WI
200 PM CDT SUN MAY 24 2015

NOTE: "FAIR" INDICATES FEW OR NO CLOUDS BELOW 12,000 FEET WITH NO
SIGNIFICANT WEATHER AND/OR OBSTRUCTIONS TO VISIBILITY.

WIZ001-002-006>008-014>016-023>028-242000-
NORTHWEST WISCONSIN

CITY           SKY/WX    TMP DP  RH WIND       PRES   REMARKS
SUPERIOR ARPT  CLOUDY    67  45  46 NE7       30.04F
ASHLAND        CLOUDY    71  50  47 N6        30.06F
HAYWARD        CLOUDY    73  48  41 E6        30.04F
SIREN          LGT RAIN  67  55  63 NE5       30.03F
CUMBERLAND     LGT RAIN  66  50  55 S12       30.05F
RICE LAKE      CLOUDY    68  51  54 S14       30.06F
CHETEK         LGT RAIN  65  54  67 SE12G18   30.06F
LADYSMITH      CLOUDY    68  53  57 S10G16    30.09S
EAU CLAIRE     LGT RAIN  61  56  83 SE7       30.05F
MENOMONIE      DRIZZLE   61  56  84 SE13      30.05F
NEW RICHMOND   DRIZZLE   64  54  70 SE10G16   30.03F
OSCEOLA        LGT RAIN  64  56  76 S8        30.05F
$$

WIZ003>005-009-010-017-018-242000-
NORTH CENTRAL WISCONSIN

CITY           SKY/WX    TMP DP  RH WIND       PRES   REMARKS
MANITOWISH WTR CLOUDY    72  47  40 S8        30.08F
ARBOR VITAE    CLOUDY    72  47  40 S10       30.09F
WOODRUFF       CLOUDY    72  47  40 S10       30.09F
RHINELANDER    CLOUDY    73  46  38 S10       30.10F
EAGLE RIVER    CLOUDY    73  41  31 S3        30.09F
LAND O LAKES   CLOUDY    75  41  29 SW7G26    30.09F
PHILLIPS       CLOUDY    71  49  46 S10       30.07F
TOMAHAWK       CLOUDY    70  47  44 S6        30.10F
MEDFORD        LGT RAIN  60  56  84 SE13      30.12S
MERRILL        CLOUDY    66  53  63 SW13G20   30.12S
$$

WIZ029-030-035-036-043>047-242000-
CENTRAL WISCONSIN

CITY           SKY/WX    TMP DP  RH WIND       PRES   REMARKS
WAUSAU         LGT RAIN  62  54  74 S13       30.11S
MOSINEE        DRIZZLE   61  57  88 S9        30.14F
MARSHFIELD     LGT RAIN  61  56  83 SE13      30.11F
STEVENS POINT  LGT RAIN  58  55  89 S7        30.13F
WAUPACA        RAIN      63  58  83 S7        30.15F
WAUTOMA        CLOUDY    61  59  93 SE8       30.13F FOG
WISC RAPIDS    LGT RAIN  60  56  86 SE3       30.13F
CAMP DOUGLAS   LGT RAIN  59  59 100 E13       30.07F
$$

WIZ011>013-019>022-031-037>040-048>050-242000-
NORTHEAST WISCONSIN

CITY           SKY/WX    TMP DP  RH WIND       PRES   REMARKS
ANTIGO         CLOUDY    67  51  57 S16       30.12F
SHAWANO        LGT RAIN  68  54  60 SW10G18   30.14S
OCONTO         CLOUDY    70  53  53 S8        30.12S
STURGEON BAY   CLOUDY    63  45  51 S9        30.15F
GREEN BAY      CLOUDY    69  54  58 SW14      30.15S
MANITOWOC      LGT RAIN  64  54  69 S18       30.18R
APPLETON       LGT RAIN  61  54  77 S13       30.16S
CLINTONVILLE   LGT RAIN  66  52  59 SW13G18   30.14S
OSHKOSH        LGT RAIN  62  56  80 S5        30.14F
$$

WIZ032>034-041-042-053>061-242000-
SOUTHWEST WISCONSIN

CITY           SKY/WX    TMP DP  RH WIND       PRES   REMARKS
LA CROSSE      RAIN      61  58  90 E9        30.04F FOG
SPARTA         DRIZZLE   59  55  88 E9        30.07F
VIROQUA        CLOUDY    57  57 100 E17       30.04F
BOSCOBEL       LGT RAIN  60  57  89 E8        30.04F
PRAIRIE DU CHI LGT RAIN  59  56  90 E9        30.01F
PLATTEVILLE    CLOUDY    59  58  96 E18G24    30.02F
$$

WIZ056-057-062-063-064-067-068-242000-
SOUTH CENTRAL WISCONSIN

CITY           SKY/WX    TMP DP  RH WIND       PRES   REMARKS
REEDSBURG      LGT RAIN  57  56  95 E6        30.08F
BARABOO/DELLS  RAIN      58  55  91 E9        30.09F
LONE ROCK      LGT RAIN  59  56  89 E16       30.07F FOG
MINERAL POINT  RAIN      59  57  94 E13       30.05F
MADISON        LGT RAIN  61  56  83 E10       30.09F
MIDDLETON      CLOUDY    61  56  84 E9        30.09F
WATERTOWN      DRIZZLE   61  60  97 E7        30.11F
MONROE         LGT RAIN  61  55  82 E10G16    30.06F
JANESVILLE     PTSUNNY   66  55  68 E10       30.08F
$$

WIZ051-052-058>065-066-070>072-242000-
SOUTHEAST WISCONSIN

CITY           SKY/WX    TMP DP  RH WIND       PRES   REMARKS
MILWAUKEE      CLOUDY    63  56  78 NE8       30.14F
WAUKESHA       CLOUDY    63  55  77 E9        30.14F
MILWAUKEE/TIMM DRIZZLE   64  55  72 E5        30.14F
RACINE         CLOUDY    65  54  67 NE6       30.15F
BURLINGTON     LGT RAIN  63  57  80 E8        30.10F
KENOSHA        CLOUDY    65  53  65 E13       30.12F
FOND DU LAC    LGT RAIN  62  56  80 E6        30.14F
SHEBOYGAN      LGT RAIN  63  57  81 S6        30.16F
WEST BEND      RAIN      63  55  77 CALM      30.15F
JUNEAU         RAIN      61  57  87 E8        30.13F
$$

LSZ147-162-242000-
LAKE SUPERIOR

STATION/POSITION TIME  TEMP    WIND        PRES    WAVE
                       AIR SEA DIR/SP/G            HT/PER
                 (UTC) (F)     (DEG/KT/KT) (MB)    (FT/S)
W MID LAKE BUOY  1750   48 37   CALM  /  2   N/A     0
DEVILS ISLAND    1800   66     150/  1/  3   N/A
PORT WING        1700   55     350/  2/  2   N/A
SAXON HARBOR     1740   59        CALM       N/A
$$

LMZ867-665-643>646-242000-
LAKE MICHIGAN

STATION/POSITION TIME  TEMP    WIND        PRES    WAVE
                       AIR SEA DIR/SP/G            HT/PER
                 (UTC) (F)     (DEG/KT/KT) (MB)    (FT/S)
CHAMBERS ISLAND  1700   70     160/  3/  6   N/A
N MID LAKE BUOY  1750   42 36  190/ 10/ 12   N/A     0
NORTHPORT PIER   1700   54     160/  7/ 11   N/A
SISTER BAY       1717   71        CALM       N/A
KEWAUNEE LAKESHO 1700   50     180/ 11/ 13   N/A
SHEBOYGAN LAKESH 1800   57     150/  7/  7   N/A
PORT WASHINGTON  1600   53     150/  2/  3   N/A
ATWATER BUOY     1700   51 46  150/  4/  6   N/A
MILWAUKEE LAKESH 1700   52     190/  2/  4   N/A
S MID LAKE BUOY  1750   42 38   60/  4/  4   N/A     0
$$

TC  - TEMPERATURE IN CELSIUS
VSB - VISIBILITY IN STATUTE MILES
WCI - WIND CHILL INDEX
HX  - HEAT INDEX




USA.gov is the U.S. government's official web portal to all federal, state and local government web resources and services.